Wiley Ford, WV

12:33 PM EDT on August 27, 2016 (GMT -0400)
Greater Cumberland Regional

Weather History for KCBE - September, 2013

Change the Weather History Date:

Friday, September 13, 2013

  Actual Average (KMRB) Record (KMRB)
Temperature  
Mean Temperature 63 °F 66 °F  
Max Temperature 71 °F 78 °F 100 °F (1931)
Min Temperature 55 °F 55 °F 40 °F (1943)
Degree Days  
Heating Degree Days 2 2  
Month to date heating degree days 16  
Since 1 July heating degree days 23  
Cooling Degree Days 0 3  
Month to date cooling degree days 60  
Year to date cooling degree days 852  
Growing Degree Days 13 (Base 50)    
Moisture  
Dew Point 51 °F    
Average Humidity 65    
Maximum Humidity 94    
Minimum Humidity 35    
Precipitation  
Precipitation 0.00 in 0.12 in 1.75 in (1934)
Month to date precipitation 1.49  
Year to date precipitation 27.73  
Sea Level Pressure  
Sea Level Pressure 29.91 in    
Wind  
Wind Speed 5 mph (NW)    
Max Wind Speed 15 mph    
Max Gust Speed 23 mph    
Visibility 10 miles    
Events      
T = Trace of Precipitation, MM = Missing Value Source: NWS Daily Summary

Daily Weather History Graph

Daily Weather History Graph

Search for Another Location

Airport or City:

Trip Planner

Search our weather history database for the weather conditions in past years. The results will help you decide how hot, cold, wet, or windy it might be!

Date:

Astronomy

Sep. 13, 2013 Rise Set
Actual Time 6:54 AM EDT 7:26 PM EDT
Civil Twilight 6:27 AM EDT 7:53 PM EDT
Nautical Twilight 5:55 AM EDT 8:25 PM EDT
Astronomical Twilight 5:22 AM EDT 8:58 PM EDT
Moon 3:13 PM EDT (9/13) 12:22 AM EDT (9/13)
Length of Visible Light 13h 26m
Length of Day
12h 31m
First Quarter, 61% of the Moon is Illuminated
Sep 13
First Quarter
Sep 19
Full
Sep 26
Last Quarter
Oct 4
New
Oct 11
First Quarter

Hourly Weather History & Observations

Time (EDT) Temp. Dew Point Humidity Pressure Visibility Wind Dir Wind Speed Gust Speed Precip Events Conditions
12:08 AM 66.2 °F 64.4 °F 94% 29.84 in 7.0 mi Calm Calm - N/A   Mostly Cloudy
12:28 AM 68.0 °F 62.6 °F 83% 29.84 in 10.0 mi Calm Calm - N/A   Mostly Cloudy
12:48 AM 68.0 °F 60.8 °F 78% 29.83 in 10.0 mi WNW 4.6 mph - N/A   Mostly Cloudy
1:08 AM 66.2 °F 60.8 °F 83% 29.84 in 10.0 mi Calm Calm - N/A   Mostly Cloudy
1:28 AM 66.2 °F 60.8 °F 83% 29.84 in 10.0 mi NNW 3.5 mph - N/A   Scattered Clouds
1:48 AM 64.4 °F 60.8 °F 88% 29.85 in 10.0 mi Calm Calm - N/A   Scattered Clouds
2:08 AM 64.4 °F 60.8 °F 88% 29.85 in 10.0 mi WNW 4.6 mph - N/A   Clear
2:28 AM 62.6 °F 59.0 °F 88% 29.85 in 10.0 mi Calm Calm - N/A   Scattered Clouds
2:48 AM 62.6 °F 59.0 °F 88% 29.85 in 10.0 mi NNW 3.5 mph - N/A   Scattered Clouds
3:08 AM 62.6 °F 59.0 °F 88% 29.85 in 10.0 mi North 4.6 mph - N/A   Scattered Clouds
3:28 AM 62.6 °F 59.0 °F 88% 29.85 in 10.0 mi NW 4.6 mph - N/A   Scattered Clouds
3:48 AM 62.6 °F 57.2 °F 82% 29.85 in 10.0 mi North 4.6 mph - N/A   Clear
4:08 AM 62.6 °F 57.2 °F 82% 29.85 in 10.0 mi Calm Calm - N/A   Clear
4:28 AM 62.6 °F 57.2 °F 82% 29.85 in 10.0 mi NE 5.8 mph - N/A   Clear
4:48 AM 62.6 °F 57.2 °F 82% 29.84 in 10.0 mi NE 5.8 mph - N/A   Clear
5:08 AM 62.6 °F 55.4 °F 77% 29.85 in 10.0 mi NNE 4.6 mph - N/A   Scattered Clouds
5:28 AM 62.6 °F 55.4 °F 77% 29.83 in 10.0 mi NNW 4.6 mph - N/A   Scattered Clouds
5:48 AM 62.6 °F 55.4 °F 77% 29.84 in 10.0 mi Calm Calm - N/A   Scattered Clouds
6:09 AM 62.6 °F 55.4 °F 77% 29.85 in 10.0 mi Calm Calm - N/A   Mostly Cloudy
6:29 AM 60.8 °F 57.2 °F 88% 29.85 in 10.0 mi Calm Calm - N/A   Overcast
6:49 AM 62.6 °F 55.4 °F 77% 29.86 in 10.0 mi Calm Calm - N/A   Overcast
7:09 AM 60.8 °F 55.4 °F 82% 29.86 in 10.0 mi Calm Calm - N/A   Mostly Cloudy
7:29 AM 60.8 °F 55.4 °F 82% 29.87 in 10.0 mi Calm Calm - N/A   Scattered Clouds
7:49 AM 62.6 °F 51.8 °F 68% 29.88 in 10.0 mi NW 9.2 mph - N/A   Scattered Clouds
8:09 AM 62.6 °F 51.8 °F 68% 29.89 in 10.0 mi NW 6.9 mph - N/A   Clear
8:29 AM 62.6 °F 51.8 °F 68% 29.88 in 10.0 mi NW 10.4 mph 16.1 mph N/A   Clear
8:49 AM 62.6 °F 51.8 °F 68% 29.88 in 10.0 mi NW 15.0 mph 20.7 mph N/A   Clear
9:09 AM 64.4 °F 51.8 °F 64% 29.89 in 10.0 mi NNW 9.2 mph 16.1 mph N/A   Clear
9:29 AM 64.4 °F 51.8 °F 64% 29.89 in 10.0 mi WNW 9.2 mph - N/A   Clear
9:49 AM 66.2 °F 51.8 °F 60% 29.90 in 10.0 mi NW 8.1 mph 16.1 mph N/A   Clear
10:09 AM 68.0 °F 50.0 °F 52% 29.90 in 10.0 mi NW 10.4 mph 19.6 mph N/A   Clear
10:29 AM 68.0 °F 50.0 °F 52% 29.90 in 10.0 mi NW 10.4 mph 16.1 mph N/A   Clear
10:49 AM 68.0 °F 50.0 °F 52% 29.90 in 10.0 mi NW 10.4 mph - N/A   Clear
11:09 AM 69.8 °F 50.0 °F 49% 29.90 in 10.0 mi NNW 6.9 mph - N/A   Scattered Clouds
11:29 AM 69.8 °F 46.4 °F 43% 29.90 in 10.0 mi NNW 10.4 mph 19.6 mph N/A   Clear
11:49 AM 68.0 °F 48.2 °F 49% 29.91 in 10.0 mi WNW 6.9 mph - N/A   Scattered Clouds
12:09 PM 69.8 °F 48.2 °F 46% 29.90 in 10.0 mi WNW 10.4 mph 16.1 mph N/A   Clear
12:29 PM 69.8 °F 46.4 °F 43% 29.90 in 10.0 mi WNW 9.2 mph - N/A   Clear
12:49 PM 69.8 °F 46.4 °F 43% 29.89 in 10.0 mi NW 5.8 mph - N/A   Scattered Clouds
1:09 PM 69.8 °F 46.4 °F 43% 29.89 in 10.0 mi North 8.1 mph - N/A   Clear
1:29 PM 69.8 °F 46.4 °F 43% 29.89 in 10.0 mi NNW 11.5 mph 19.6 mph N/A   Scattered Clouds
1:49 PM 69.8 °F 46.4 °F 43% 29.88 in 10.0 mi NNW 10.4 mph 16.1 mph N/A   Scattered Clouds
2:09 PM 69.8 °F 46.4 °F 43% 29.89 in 10.0 mi West 5.8 mph - N/A   Clear
2:29 PM 71.6 °F 44.6 °F 38% 29.88 in 10.0 mi West 8.1 mph - N/A   Clear
2:50 PM 71.6 °F 42.8 °F 35% 29.88 in 10.0 mi NW 6.9 mph 16.1 mph N/A   Scattered Clouds
3:10 PM 64.4 °F 48.2 °F 56% 29.90 in 10.0 mi NW 13.8 mph 20.7 mph N/A   Mostly Cloudy
3:30 PM 64.4 °F 48.2 °F 56% 29.90 in 10.0 mi NW 11.5 mph 18.4 mph N/A   Mostly Cloudy
3:50 PM 64.4 °F 48.2 °F 56% 29.90 in 10.0 mi NW 6.9 mph - N/A   Mostly Cloudy
4:10 PM 68.0 °F 48.2 °F 49% 29.90 in 10.0 mi NNW 11.5 mph 16.1 mph N/A   Scattered Clouds
4:30 PM 62.6 °F 51.8 °F 68% 29.91 in 5.0 mi NW 10.4 mph 23.0 mph N/A   Mostly Cloudy
4:50 PM 62.6 °F 53.6 °F 72% 29.92 in 10.0 mi NW 9.2 mph 17.3 mph N/A   Mostly Cloudy
5:10 PM 64.4 °F 51.8 °F 64% 29.93 in 10.0 mi NNW 15.0 mph 23.0 mph N/A   Clear
5:30 PM 62.6 °F 50.0 °F 63% 29.93 in 10.0 mi NW 11.5 mph 18.4 mph N/A   Clear
5:50 PM 62.6 °F 50.0 °F 63% 29.94 in 10.0 mi NNW 12.7 mph 20.7 mph N/A   Scattered Clouds
6:10 PM 62.6 °F 48.2 °F 59% 29.94 in 10.0 mi NNW 11.5 mph 19.6 mph N/A   Scattered Clouds
6:30 PM 62.6 °F 46.4 °F 55% 29.95 in 10.0 mi NW 10.4 mph 18.4 mph N/A   Scattered Clouds
6:50 PM 60.8 °F 46.4 °F 59% 29.96 in 10.0 mi NW 8.1 mph - N/A   Mostly Cloudy
7:10 PM 60.8 °F 46.4 °F 59% 29.96 in 10.0 mi NW 8.1 mph - N/A   Scattered Clouds
7:30 PM 60.8 °F 46.4 °F 59% 29.97 in 10.0 mi NNW 6.9 mph - N/A   Scattered Clouds
7:50 PM 60.8 °F 46.4 °F 59% 29.98 in 10.0 mi NW 3.5 mph - N/A   Scattered Clouds
8:10 PM 59.0 °F 48.2 °F 67% 29.99 in 10.0 mi WNW 8.1 mph - N/A   Scattered Clouds
8:30 PM 59.0 °F 46.4 °F 63% 29.99 in 10.0 mi NW 9.2 mph - N/A   Clear
8:50 PM 59.0 °F 46.4 °F 63% 30.00 in 10.0 mi NW 4.6 mph - N/A   Clear
9:10 PM 59.0 °F 44.6 °F 59% 30.02 in 10.0 mi NW 6.9 mph - N/A   Clear
9:30 PM 59.0 °F 44.6 °F 59% 30.02 in 10.0 mi NW 8.1 mph - N/A   Clear
9:50 PM 57.2 °F 44.6 °F 63% 30.02 in 10.0 mi NW 8.1 mph - N/A   Clear
10:10 PM 57.2 °F 42.8 °F 59% 30.03 in 10.0 mi NW 8.1 mph - N/A   Scattered Clouds
10:30 PM 55.4 °F 42.8 °F 63% 30.04 in 10.0 mi NNW 8.1 mph - N/A   Clear
10:50 PM 55.4 °F 42.8 °F 63% 30.04 in 10.0 mi NW 5.8 mph - N/A   Clear
11:10 PM 55.4 °F 42.8 °F 63% 30.05 in 10.0 mi WNW 5.8 mph - N/A   Clear
11:31 PM 55.4 °F 42.8 °F 63% 30.05 in 10.0 mi NNW 3.5 mph - N/A   Scattered Clouds
11:51 PM 55.4 °F 44.6 °F 67% 30.05 in 10.0 mi NNW 5.8 mph - N/A   Mostly Cloudy